Regional Weather Roundup
Issued by NWS

Home | Current Version | Previous Version | Text Only | Print | Product List | Glossary Off
Versions: 1 2 3 4 5 6 7 8 9 10 11 12 13 14 15 16 17 18 19 20 21 22 23 24 25 26 27 28 29 30 31 32 33 34 35 36 37 38 39 40 41 42 43 44 45 46 47 48 49 50

000
ASUS43 KLOT 091303
RWRIL

ILLINOIS REGIONAL WEATHER ROUNDUP
NATIONAL WEATHER SERVICE CHICAGO/ROMEOVILLE IL
700 AM CST FRI DEC 09 2016

NOTE: "FAIR" INDICATES FEW OR NO CLOUDS BELOW 12,000 FEET WITH NO
SIGNIFICANT WEATHER AND/OR OBSTRUCTIONS TO VISIBILITY.

* THESE STATIONS ARE NOT UNDER NWS QUALITY CONTROL. THEY ALSO MAY NOT
  REPORT WEATHER SUCH AS PRECIPITATION OR FOG.

ILZ001-002-007-009-015-016-024-091400-
NORTHWEST ILLINOIS

CITY           SKY/WX    TMP DP  RH WIND       PRES   REMARKS
MOLINE         CLOUDY    19  10  68 NW10      30.57S WCI   7
STERLING*      FLURRIES  19  15  84 W10       30.55R WCI   7
SAVANNA*       CLOUDY    19  13  79 NW9       30.54S WCI   8
$$

ILZ003-004-008-010-011-017-018-091400-
NORTH CENTRAL ILLINOIS

CITY           SKY/WX    TMP DP  RH WIND       PRES   REMARKS
ROCKFORD       FLURRIES  22  16  78 W10       30.53R WCI  11
FREEPORT*      FLURRIES  19  15  82 W9        30.53S WCI   9
ROCHELLE*      CLOUDY    21  17  84 W10       30.52R WCI  10
$$

ILZ005-006-012>014-019>023-091400-
NORTHEAST ILLINOIS

CITY           SKY/WX    TMP DP  RH WIND       PRES   REMARKS
CHICAGO-OHARE  FLURRIES  23  17  78 W10       30.48R WCI  12
CHICAGO-MIDWAY FLURRIES  23  15  71 W10       30.49R WCI  12
AURORA         CLOUDY    22  16  78 W13       30.51R WCI  10
LANSING*       CLOUDY    22  19  86 W8        30.50R WCI  13
WAUKEGAN       MOCLDY    22  17  81 NW6       30.47R WCI  14
DUPAGE AIRPORT CLOUDY    22  15  75 W10       30.49R WCI  11
KANKAKEE*      MIX PCPN  22  17  79 W9        30.53R WCI  12
WHEELING       CLOUDY    23  16  74 W7        30.50R WCI  15
MORRIS*        CLOUDY    22  17  81 W10       30.52R WCI  11
NORTHERLY ISL    N/A     24  18  77 W8          N/A  WCI  15
$$

LMZ740>746-091400-
SOUTHERN LAKE MICHIGAN

STATION/POSITION SKY/WX   TEMP    WIND        PRES    VSBY  WAVE
                          AIR SEA DIR/SP/G                  HT/PER
                          (F)     (DEG/KT/KT) (MB)    (MI)  (FT/S)
HARRISON CRIB              25     290/ 15/ 18   N/A
BURNHAM HARBOR             24     290/  8/ 12   N/A
CALUMET HARBOR             23     260/  4/  7 1031.6R
BURNS HARBOR               27     280/ 17/ 22 1032.2R
$$

ILZ025>027-034>036-040-047-049-050-058-095>099-091400-
WEST-CENTRAL ILLINOIS

CITY           SKY/WX    TMP DP  RH WIND       PRES   REMARKS
QUINCY         CLOUDY    17  12  80 W6        30.60S WCI   9
GALESBURG*     FLURRIES  19  14  79 NW9       30.57S WCI   9
MACOMB*        FLURRIES  20  14  77 NW9       30.61S WCI  10
JACKSONVILLE*  CLOUDY    20  14  78 W5        30.60S WCI  14
PITTSFIELD*    CLOUDY    16  12  83 W6        30.61S WCI   8
$$

ILZ028>032-037-038-041>044-048-051>054-059>061-091400-
CENTRAL ILLINOIS

CITY           SKY/WX    TMP DP  RH WIND       PRES   REMARKS
PONTIAC        CLOUDY    22  17  78 W12       30.55S WCI  11
BLOOMINGTON    CLOUDY    21  14  74 W13       30.55R WCI   9
DECATUR        CLOUDY    22  13  68 NW9       30.57R WCI  12
PEORIA         CLOUDY    21  13  71 NW9       30.58R WCI  11
LACON*         CLOUDY    20  13  73 NW8       30.56R WCI  10
LINCOLN*       FLURRIES  23  17  78 NW7       30.58R WCI  15
SPRINGFIELD    CLOUDY    23  15  71 NW8       30.60R WCI  14
TAYLORVILLE    CLOUDY    21  15  76 CALM      30.59R
$$

ILZ033-039-045-046-055>057-062-063-091400-
EAST-CENTRAL ILLINOIS

CITY           SKY/WX    TMP DP  RH WIND       PRES   REMARKS
CHAMPAIGN      FLURRIES  23  13  65 W9        30.55R WCI  13
RANTOUL*       CLOUDY    24  17  75 W9        30.54R WCI  14
MATTOON        FLURRIES  22  15  75 NW8       30.56R WCI  12
PARIS*         CLOUDY    22  15  74 NW7       30.57R WCI  14
$$

ILZ079-100>102-091400-
SOUTHWEST ILLINOIS

CITY           SKY/WX    TMP DP  RH WIND       PRES   REMARKS
ALTON          CLEAR     16  12  86 W7        30.63R WCI   6
BELLEVILLE     CLEAR     16  12  83 W6        30.63R WCI   7
CAHOKIA*       CLEAR     19  11  70 W6        30.64R WCI  11
SPARTA*        CLEAR     17  12  82 W5        30.64S WCI  10
$$

ILZ064>066-069>071-074>076-080>082-084>086-088>090-092>094-091400-
SOUTH-CENTRAL ILLINOIS

CITY           SKY/WX    TMP DP  RH WIND       PRES   REMARKS
CARBONDALE     CLEAR     18  13  80 W6        30.64R WCI  10
CAIRO*         CLEAR     19  14  80 NW6       30.65S WCI  11
EFFINGHAM*     CLOUDY    24  17  74 W7        30.60R WCI  15
MARION         CLEAR     19  16  86 MISG      30.64R
SALEM*         PTCLDY    20  13  75 NW3       30.61R
METROPOLIS*    CLEAR     19  14  79 CALM      30.65R
$$

ILZ067-068-072-073-078-083-087-091-091400-
SOUTHEAST ILLINOIS

CITY           SKY/WX    TMP DP  RH WIND       PRES   REMARKS
LAWRENCEVILLE  CLOUDY    22  13  68 CALM      30.60S
FLORA*         MOCLDY    22  15  72 W8        30.61R WCI  13
FAIRFIELD*     PTCLDY    21  14  73 CALM      30.60S
HARRISBURG*    CLEAR     19  15  82 NW3       30.64R
ROBINSON*      CLOUDY    22  13  69 N6        30.60S WCI  15
CARMI*         CLOUDY    22  15  74 NW3       30.61S
$$

ABBREVIATIONS USED IN REMARKS
   TC - TEMPERATURE IN CELSIUS
  WCI - WIND CHILL INDEX
   HX - HEAT INDEX
  VSB - VISIBILITY
$$




USA.gov is the U.S. government's official web portal to all federal, state and local government web resources and services.